Challis, ID

11:54 PM MST on February 26, 2017 (GMT -0700)
Challis

Weather History for KLLJ - March, 2013

Change the Weather History Date:

Thursday, March 21, 2013

  Actual Average Record
Temperature  
Mean Temperature 30 °F 38 °F  
Max Temperature 39 °F 51 °F 71 °F (1928)
Min Temperature 20 °F 26 °F -4 °F (1898)
Degree Days  
Heating Degree Days 35 27  
Month to date heating degree days 610 640  
Since 1 July heating degree days 6318 6689  
Cooling Degree Days 0 0  
Month to date cooling degree days 0 0  
Year to date cooling degree days 0 0  
Moisture  
Dew Point 12 °F    
Average Humidity 48    
Maximum Humidity 74    
Minimum Humidity 21    
Precipitation  
Precipitation 0.01 in 0.02 in 0.18 in (2009)
Month to date precipitation 0.10 0.46  
Year to date precipitation 0.45 1.59  
Sea Level Pressure  
Sea Level Pressure 29.86 in    
Wind  
Wind Speed 8 mph (WNW)    
Max Wind Speed 21 mph    
Max Gust Speed 29 mph    
Visibility 9 miles    
Events Fog , Snow    
T = Trace of Precipitation, MM = Missing Value Source: NWS Daily Summary

Daily Weather History Graph

Daily Weather History Graph

Search for Another Location

Airport or City:

Trip Planner

Search our weather history database for the weather conditions in past years. The results will help you decide how hot, cold, wet, or windy it might be!

Date:

Astronomy

Mar. 21, 2013 Rise Set
Actual Time 7:37 AM MDT 7:51 PM MDT
Civil Twilight 7:08 AM MDT 8:20 PM MDT
Nautical Twilight 6:34 AM MDT 8:54 PM MDT
Astronomical Twilight 5:59 AM MDT 9:29 PM MDT
Moon 2:13 PM MDT (3/21) 4:13 AM MDT (3/21)
Length of Visible Light 13h 11m
Length of Day
12h 13m
Waxing Gibbous, 69% of the Moon is Illuminated
Mar 21
Waxing Gibbous
Mar 27
Full
Apr 2
Last Quarter
Apr 10
New
Apr 18
First Quarter

Hourly Weather History & Observations

Time (MDT) Temp. Windchill Dew Point Humidity Pressure Visibility Wind Dir Wind Speed Gust Speed Precip Events Conditions
12:55 AM 36.0 °F 30.3 °F 21.9 °F 57% 29.68 in 10.0 mi WNW 6.9 mph - N/A   Overcast
1:55 AM 36.0 °F 33.3 °F 21.0 °F 55% 29.67 in 10.0 mi SSW 3.5 mph - N/A   Scattered Clouds
2:55 AM 32.0 °F 24.2 °F 23.0 °F 69% 29.68 in 10.0 mi North 9.2 mph 18.4 mph N/A   Scattered Clouds
3:39 AM 28.4 °F 17.5 °F 23.0 °F 80% 29.75 in 1.8 mi North 13.8 mph 27.6 mph 0.00 in Snow Light Snow
3:45 AM 28.4 °F 18.5 °F 24.8 °F 86% 29.75 in 0.5 mi NE 11.5 mph 21.9 mph 0.01 in Fog , Snow Snow
3:52 AM 26.6 °F 16.8 °F 24.8 °F 93% 29.75 in 1.0 mi NE 10.4 mph - 0.01 in Snow Light Snow
3:55 AM 27.0 °F 19.5 °F 24.1 °F 89% 29.74 in 2.0 mi NE 6.9 mph - 0.01 in Snow Light Snow
3:59 AM 26.6 °F 21.2 °F 24.8 °F 93% 29.75 in 5.0 mi NE 4.6 mph - 0.00 in Snow Light Snow
4:55 AM 24.1 °F - 19.0 °F 81% 29.76 in 10.0 mi Calm Calm - 0.00 in   Clear
5:55 AM 24.1 °F 19.7 °F 18.0 °F 77% 29.79 in 10.0 mi South 3.5 mph - N/A   Partly Cloudy
6:55 AM 24.1 °F 17.0 °F 17.1 °F 75% 29.84 in 10.0 mi WNW 5.8 mph - N/A   Overcast
7:55 AM 26.1 °F 20.5 °F 17.1 °F 69% 29.86 in 10.0 mi SW 4.6 mph - N/A   Overcast
8:55 AM 28.0 °F 17.0 °F 7.0 °F 41% 29.89 in 10.0 mi WSW 13.8 mph 21.9 mph N/A   Overcast
9:55 AM 30.0 °F 20.0 °F 7.0 °F 38% 29.91 in 10.0 mi West 12.7 mph - N/A   Clear
10:55 AM 32.0 °F 22.1 °F 8.1 °F 37% 29.91 in 10.0 mi West 13.8 mph 21.9 mph N/A   Clear
11:55 AM 34.0 °F 25.5 °F 6.1 °F 31% 29.91 in 10.0 mi West 11.5 mph 20.7 mph N/A   Partly Cloudy
12:55 PM 35.1 °F - 3.0 °F 26% 29.90 in 10.0 mi Calm Calm - N/A   Scattered Clouds
1:55 PM 37.0 °F 28.9 °F 1.9 °F 23% 29.90 in 10.0 mi NW 12.7 mph 25.3 mph N/A   Mostly Cloudy
2:55 PM 37.9 °F 29.6 °F 1.9 °F 22% 29.90 in 10.0 mi NW 13.8 mph 20.7 mph N/A   Overcast
3:55 PM 37.0 °F 27.4 °F 1.9 °F 23% 29.91 in 10.0 mi NW 17.3 mph 23.0 mph N/A   Mostly Cloudy
4:55 PM 35.1 °F 26.9 °F 3.9 °F 27% 29.94 in 10.0 mi WNW 11.5 mph - N/A   Overcast
5:55 PM 34.0 °F 27.2 °F 3.0 °F 27% 29.95 in 10.0 mi NW 8.1 mph 16.1 mph N/A   Mostly Cloudy
6:55 PM 33.1 °F 24.9 °F 3.0 °F 28% 29.96 in 10.0 mi WNW 10.4 mph 16.1 mph N/A   Mostly Cloudy
7:55 PM 28.9 °F 21.9 °F 5.0 °F 36% 29.97 in 10.0 mi WNW 6.9 mph - N/A   Mostly Cloudy
8:55 PM 27.0 °F 19.5 °F 5.0 °F 39% 29.98 in 10.0 mi WSW 6.9 mph - N/A   Partly Cloudy
9:55 PM 26.1 °F 18.4 °F 3.9 °F 39% 30.00 in 10.0 mi West 6.9 mph - N/A   Clear
10:55 PM 24.1 °F 19.7 °F 5.0 °F 44% 30.00 in 10.0 mi SW 3.5 mph - N/A   Clear
11:55 PM 23.0 °F - 6.1 °F 48% 29.98 in 10.0 mi Calm Calm - N/A   Partly Cloudy